Location: Unspecified
(34.4950°S, 58.5160°W)
Time: 14:33:21
(UTC+00:00)

ACS3 Solar Sail - Visible Passes

Search period start: 15 February 2026 00:00
Search period end: 25 February 2026 00:00
Orbit: 899 x 968 km, 97.2° (Epoch: 14 February)

Date Brightness Start Highest point End Pass type
(mag) Time Alt. Az. Time Alt. Az. Time Alt. Az.
15 Feb 3.4 05:07:25 27° S 05:07:25 27° S 05:10:05 10° S visible
16 Feb 3.5 05:20:08 26° S 05:20:08 26° S 05:22:36 10° S visible
17 Feb 4.3 03:49:03 12° SE 03:49:03 12° SE 03:49:59 10° SE visible
17 Feb 3.5 05:32:49 24° SSW 05:32:49 24° SSW 05:35:02 10° SSW visible
18 Feb 4.1 04:01:44 15° SE 04:01:44 15° SE 04:03:16 10° SSE visible
18 Feb 3.7 05:45:29 21° SSW 05:45:29 21° SSW 05:47:20 10° SSW visible
19 Feb 4.0 04:14:22 17° SSE 04:14:22 17° SSE 04:16:13 10° SSE visible
19 Feb 3.8 05:58:08 17° SSW 05:58:08 17° SSW 05:59:33 10° SSW visible
20 Feb 4.0 04:26:59 19° SSE 04:26:59 19° SSE 04:28:58 10° S visible
20 Feb 3.9 06:10:45 14° SW 06:10:45 14° SW 06:11:38 10° SSW visible
21 Feb 3.9 04:39:35 20° SSE 04:39:35 20° SSE 04:41:35 10° S visible
21 Feb 4.1 06:23:20 11° SW 06:23:20 11° SW 06:23:35 10° SW visible
22 Feb 3.9 04:52:09 21° S 04:52:09 21° S 04:54:04 10° S visible
23 Feb 3.9 05:04:41 20° S 05:04:41 20° S 05:06:27 10° S visible
24 Feb 3.9 05:17:11 19° S 05:17:11 19° S 05:18:44 10° S visible
